EN

Hourly Weather Kyulekyan

Today, 28 July, Wednesday

Time Temperature Precipitation Wind Pressure Humidity
00:00 +12°C° 0 mm 5 mps 750 mmHg 73%
01:00 +10°C° 0 mm 5 mps 750 mmHg 75%
02:00 +9°C° 0 mm 5 mps 750 mmHg 77%
03:00 +10°C° 0 mm 5 mps 750 mmHg 74%
04:00 +10°C° 0 mm 6 mps 750 mmHg 71%
05:00 +10°C° 0 mm 6 mps 750 mmHg 68%
06:00 +11°C° 0 mm 6 mps 750 mmHg 64%
07:00 +14°C° 0 mm 6 mps 750 mmHg 60%
08:00 +15°C° 0 mm 5 mps 751 mmHg 57%
09:00 +18°C° 0 mm 4 mps 751 mmHg 53%
10:00 +19°C° 0 mm 4 mps 751 mmHg 50%
11:00 +21°C° 0 mm 3 mps 751 mmHg 47%
12:00 +22°C° 0 mm 3 mps 751 mmHg 44%
13:00 +22°C° 0 mm 3 mps 751 mmHg 41%
14:00 +24°C° 0 mm 3 mps 750 mmHg 39%
15:00 +24°C° 0 mm 3 mps 751 mmHg 38%
16:00 +24°C° 0 mm 3 mps 751 mmHg 37%
17:00 +24°C° 0 mm 3 mps 751 mmHg 35%
18:00 +22°C° 0 mm 3 mps 751 mmHg 41%
19:00 +20°C° 0 mm 2 mps 751 mmHg 46%
20:00 +19°C° 0 mm 2 mps 751 mmHg 51%
21:00 +17°C° 0 mm 2 mps 752 mmHg 51%
22:00 +16°C° 0 mm 2 mps 752 mmHg 52%
23:00 +14°C° 0 mm 2 mps 752 mmHg 52%

Tomorrow, 29 July, Thursday

Time Temperature Precipitation Wind Pressure Humidity
00:00 +14°C° 0 mm 2 mps 752 mmHg 51%
01:00 +13°C° 0 mm 2 mps 753 mmHg 50%
02:00 +13°C° 0 mm 2 mps 753 mmHg 50%
03:00 +14°C° 0 mm 2 mps 753 mmHg 49%
04:00 +15°C° 0 mm 1 mps 753 mmHg 48%
05:00 +16°C° 0 mm 1 mps 753 mmHg 47%
06:00 +18°C° 0 mm 1 mps 753 mmHg 45%
07:00 +19°C° 0 mm 1 mps 753 mmHg 44%
08:00 +21°C° 0 mm 1 mps 753 mmHg 42%
09:00 +20°C° 0 mm 2 mps 753 mmHg 41%
10:00 +21°C° 0 mm 2 mps 753 mmHg 40%
11:00 +22°C° 0 mm 3 mps 753 mmHg 39%
12:00 +24°C° 0 mm 3 mps 753 mmHg 37%
13:00 +24°C° 0 mm 3 mps 752 mmHg 34%
14:00 +25°C° 0 mm 4 mps 752 mmHg 32%
15:00 +25°C° 0 mm 4 mps 752 mmHg 32%
16:00 +25°C° 0 mm 4 mps 752 mmHg 32%
17:00 +25°C° 0 mm 4 mps 752 mmHg 31%
18:00 +22°C° 0 mm 4 mps 752 mmHg 36%
19:00 +21°C° 0 mm 4 mps 752 mmHg 41%
20:00 +20°C° 0 mm 3 mps 752 mmHg 45%
21:00 +19°C° 0 mm 3 mps 752 mmHg 47%
22:00 +18°C° 0 mm 3 mps 752 mmHg 48%
23:00 +16°C° 0 mm 3 mps 752 mmHg 50%

Day after tomorrow, 30 July, Friday

Time Temperature Precipitation Wind Pressure Humidity
00:00 +16°C° 0 mm 3 mps 753 mmHg 52%
01:00 +15°C° 0 mm 2 mps 753 mmHg 54%
02:00 +14°C° 0 mm 2 mps 753 mmHg 56%
03:00 +15°C° 0 mm 2 mps 753 mmHg 54%
04:00 +16°C° 0 mm 2 mps 753 mmHg 53%
05:00 +18°C° 0 mm 1 mps 753 mmHg 52%
06:00 +19°C° 0 mm 1 mps 754 mmHg 48%
07:00 +20°C° 0 mm 1 mps 754 mmHg 44%
08:00 +22°C° 0 mm 1 mps 754 mmHg 40%
09:00 +22°C° 0 mm 1 mps 754 mmHg 38%
10:00 +23°C° 0 mm 1 mps 754 mmHg 36%
11:00 +24°C° 0 mm 1 mps 754 mmHg 34%
12:00 +25°C° 0 mm 1 mps 754 mmHg 33%
13:00 +25°C° 0 mm 1 mps 754 mmHg 32%
14:00 +26°C° 0 mm 1 mps 753 mmHg 31%
15:00 +26°C° 0 mm 1 mps 753 mmHg 32%
16:00 +26°C° 0 mm 1 mps 753 mmHg 32%
17:00 +26°C° 0 mm 1 mps 753 mmHg 32%
18:00 +24°C° 0 mm 1 mps 753 mmHg 37%
19:00 +23°C° 0 mm 1 mps 753 mmHg 42%
20:00 +22°C° 0 mm 1 mps 753 mmHg 47%
21:00 +20°C° 0 mm 1 mps 754 mmHg 49%
22:00 +19°C° 0 mm 1 mps 754 mmHg 52%
23:00 +18°C° 0 mm 1 mps 754 mmHg 54%

31 July, Saturday

Time Temperature Precipitation Wind Pressure Humidity
00:00 +16°C° 0 mm 1 mps 754 mmHg 54%
01:00 +16°C° 0 mm 1 mps 754 mmHg 54%
02:00 +16°C° 0 mm 1 mps 754 mmHg 55%
03:00 +18°C° 0 mm 1 mps 754 mmHg 53%
04:00 +19°C° 0 mm 1 mps 754 mmHg 51%
05:00 +20°C° 0 mm 1 mps 754 mmHg 50%
06:00 +21°C° 0 mm 1 mps 755 mmHg 45%
07:00 +23°C° 0 mm 1 mps 755 mmHg 41%
08:00 +24°C° 0 mm 1 mps 755 mmHg 37%
09:00 +25°C° 0 mm 1 mps 755 mmHg 35%
10:00 +26°C° 0 mm 1 mps 755 mmHg 33%
11:00 +27°C° 0 mm 1 mps 755 mmHg 31%
12:00 +27°C° 0 mm 1 mps 754 mmHg 30%
13:00 +28°C° 0 mm 1 mps 754 mmHg 29%
14:00 +28°C° 0 mm 1 mps 754 mmHg 27%
15:00 +28°C° 0 mm 1 mps 754 mmHg 28%
16:00 +28°C° 0 mm 1 mps 754 mmHg 28%
17:00 +28°C° 0 mm 2 mps 754 mmHg 29%
18:00 +26°C° 0 mm 1 mps 754 mmHg 34%
19:00 +25°C° 0 mm 1 mps 754 mmHg 39%
20:00 +23°C° 0 mm 1 mps 754 mmHg 44%
21:00 +22°C° 0 mm 1 mps 754 mmHg 46%
22:00 +21°C° 0 mm 1 mps 754 mmHg 47%
23:00 +20°C° 0 mm 1 mps 754 mmHg 48%

1 August, Sunday

Time Temperature Precipitation Wind Pressure Humidity
00:00 +19°C° 0 mm 1 mps 754 mmHg 49%
01:00 +19°C° 0 mm 1 mps 754 mmHg 51%
02:00 +18°C° 0 mm 1 mps 754 mmHg 52%
03:00 +20°C° 0 mm 1 mps 755 mmHg 51%
04:00 +21°C° 0 mm 1 mps 755 mmHg 51%
05:00 +20°C° 0 mm 0 mps 755 mmHg 50%
06:00 +21°C° 0 mm 0 mps 755 mmHg 45%
07:00 +22°C° 0 mm 0 mps 755 mmHg 40%
08:00 +24°C° 0 mm 0 mps 755 mmHg 36%
09:00 +25°C° 0 mm 0 mps 755 mmHg 34%
10:00 +28°C° 0 mm 1 mps 755 mmHg 32%
11:00 +28°C° 0 mm 1 mps 755 mmHg 30%
12:00 +29°C° 0 mm 1 mps 754 mmHg 29%
13:00 +29°C° 0 mm 1 mps 754 mmHg 28%
14:00 +30°C° 0 mm 2 mps 754 mmHg 27%
15:00 +29°C° 0 mm 2 mps 754 mmHg 28%
16:00 +29°C° 0 mm 2 mps 754 mmHg 29%
17:00 +29°C° 0 mm 2 mps 753 mmHg 29%
18:00 +28°C° 0 mm 2 mps 753 mmHg 33%
19:00 +26°C° 0 mm 2 mps 753 mmHg 37%
20:00 +25°C° 0 mm 2 mps 753 mmHg 40%
21:00 +24°C° 0 mm 2 mps 753 mmHg 41%
22:00 +21°C° 0 mm 2 mps 753 mmHg 42%
23:00 +20°C° 0 mm 2 mps 753 mmHg 43%

2 August, Monday

Time Temperature Precipitation Wind Pressure Humidity
00:00 +20°C° 0 mm 2 mps 753 mmHg 44%
01:00 +20°C° 0 mm 2 mps 753 mmHg 45%
02:00 +19°C° 0 mm 2 mps 753 mmHg 46%
03:00 +20°C° 0 mm 3 mps 753 mmHg 47%
04:00 +20°C° 0 mm 3 mps 753 mmHg 48%
05:00 +21°C° 0 mm 3 mps 753 mmHg 48%
06:00 +22°C° 0 mm 3 mps 752 mmHg 45%
07:00 +25°C° 0 mm 4 mps 752 mmHg 41%
08:00 +26°C° 0 mm 4 mps 752 mmHg 38%
09:00 +28°C° 0 mm 4 mps 752 mmHg 35%
10:00 +29°C° 0 mm 4 mps 752 mmHg 33%
11:00 +30°C° 0 mm 4 mps 751 mmHg 31%
12:00 +32°C° 0 mm 4 mps 751 mmHg 30%
13:00 +32°C° 0 mm 4 mps 751 mmHg 29%
14:00 +33°C° 0 mm 4 mps 750 mmHg 28%
15:00 +33°C° 0 mm 4 mps 750 mmHg 29%
16:00 +32°C° 0 mm 5 mps 750 mmHg 30%
17:00 +32°C° 0 mm 5 mps 750 mmHg 30%
18:00 +30°C° 0 mm 5 mps 750 mmHg 34%
19:00 +28°C° 0 mm 5 mps 749 mmHg 38%
20:00 +26°C° 0 mm 5 mps 749 mmHg 42%
21:00 +25°C° 0 mm 4 mps 749 mmHg 44%
22:00 +24°C° 0 mm 3 mps 749 mmHg 45%
23:00 +22°C° 0 mm 3 mps 749 mmHg 47%
Show more